Location: Unspecified
(45.0560°N, 0.0000°E)
Time: 00:41:59
(UTC+00:00)

RADARSAT 2 - Visible Passes

Search period start: 04 April 2026 00:00
Search period end: 14 April 2026 00:00
Orbit: 791 x 793 km, 98.6° (Epoch: 29 March)

Date Brightness Start Highest point End Pass type
(mag) Time Alt. Az. Time Alt. Az. Time Alt. Az.
6 Apr 8.4 04:51:54 10° ENE 04:53:58 12° E 04:56:03 10° ESE visible
7 Apr 8.5 19:03:44 10° WSW 19:05:30 12° W 19:07:17 10° WNW visible
13 Apr 8.6 04:48:15 10° ENE 04:49:43 11° E 04:51:10 10° ESE visible
